Address 0xfeb8bac57bc7c3dcce15b075e8d73b6d67dac9b9 17

Txn Hash Method
Block
From
To
Value [Txn Fee]
0xf77b138494c2e13c14ffb711429979d4178bd588ee3e13cf8362acd51c55cc11Swap188266262022-08-19 2:15:3238 mins ago0xfeb8bac57bc7c3dcce15b075e8d73b6d67dac9b9OUT 0xb40bf51c104cc9e3a45f745e81d3aa9f9e9fc7f40 AVAX0.‍0010341765825.‍480488343
0xdb096e3033f5b69580fdf3e75dfe9fc1ed2333fc0840de6629052c0d4a1f6b25Swap188261462022-08-19 1:58:5655 mins ago0xfeb8bac57bc7c3dcce15b075e8d73b6d67dac9b9OUT 0xb40bf51c104cc9e3a45f745e81d3aa9f9e9fc7f40 AVAX0.‍00103185797525.‍408337035
0x5b91e4ba9dabbc4c433f2491d06bf37c1a0e528a9dc4389349178e45dcb23fdfSwap188250952022-08-19 1:23:141 hr 31 mins ago0xfeb8bac57bc7c3dcce15b075e8d73b6d67dac9b9OUT 0xb40bf51c104cc9e3a45f745e81d3aa9f9e9fc7f40 AVAX0.‍00559345582726.‍151330731
0xd679856fdb373d30718454d195c8ca5d3b4fb418e7f405762aab9c0d527fb7c5Swap188246682022-08-19 1:08:331 hr 45 mins ago0xfeb8bac57bc7c3dcce15b075e8d73b6d67dac9b9OUT 0xb40bf51c104cc9e3a45f745e81d3aa9f9e9fc7f40 AVAX0.‍00668258557925.‍210834877
0xa76c0018c69d7e4c79d69ad388de59958aafe38a71a5548114e27ccfffffb1ceSwap188237742022-08-19 0:37:462 hrs 16 mins ago0xfeb8bac57bc7c3dcce15b075e8d73b6d67dac9b9OUT 0xb40bf51c104cc9e3a45f745e81d3aa9f9e9fc7f40 AVAX0.‍00654884860325.‍048858083
0x6f714ab26c36f92ca5e417e70e0c6445a38e3c58e68a26ec4f1a4e7afa573a3bSwap188233772022-08-19 0:24:152 hrs 30 mins ago0xfeb8bac57bc7c3dcce15b075e8d73b6d67dac9b9OUT 0xb40bf51c104cc9e3a45f745e81d3aa9f9e9fc7f40 AVAX0.‍00132117662432.‍522871887
0xf1708f59a3eb2c829e91a096ac904b72bfadf0b9da67c2fc0a3ab544fee9b194Swap188233512022-08-19 0:23:302 hrs 30 mins ago0xfeb8bac57bc7c3dcce15b075e8d73b6d67dac9b9OUT 0xb40bf51c104cc9e3a45f745e81d3aa9f9e9fc7f40 AVAX0.‍02199328333233.‍919000337
0x6fe6c93b1514fec3837cbed0ccd1860fc108588dd4696630d3e0a926f2e57cfbSwap188233372022-08-19 0:23:052 hrs 31 mins ago0xfeb8bac57bc7c3dcce15b075e8d73b6d67dac9b9OUT 0xb40bf51c104cc9e3a45f745e81d3aa9f9e9fc7f40 AVAX0.‍01243306726235.‍509251442
0xe88665e5ad356ba5ffbf6c7d52e11b33988907a823c145fa529adc25ce6f7bbaSwap188233312022-08-19 0:22:552 hrs 31 mins ago0xfeb8bac57bc7c3dcce15b075e8d73b6d67dac9b9OUT 0xb40bf51c104cc9e3a45f745e81d3aa9f9e9fc7f40 AVAX0.‍00831729149436.‍590564717
0x2cebd4315a8bdbeeb5016b6c5b97c635a9716f3df687326773702dc68c466202Swap188233292022-08-19 0:22:512 hrs 31 mins ago0xfeb8bac57bc7c3dcce15b075e8d73b6d67dac9b9OUT 0xb40bf51c104cc9e3a45f745e81d3aa9f9e9fc7f40 AVAX0.‍0122273938936.‍592201449
0x89c6793eca5bce4aa1b0cb1f3e7d6614773dcdd52f68d270eaaa26b6d82f9be1Swap188233212022-08-19 0:22:332 hrs 31 mins ago0xfeb8bac57bc7c3dcce15b075e8d73b6d67dac9b9OUT 0xb40bf51c104cc9e3a45f745e81d3aa9f9e9fc7f40 AVAX0.‍05579848530737.‍209731414
0x67691cacc8e8875b123544f03cf3620ff34985b54d25701897e313b2916ddfceSwap188232062022-08-19 0:19:112 hrs 35 mins ago0xfeb8bac57bc7c3dcce15b075e8d73b6d67dac9b9OUT 0xb40bf51c104cc9e3a45f745e81d3aa9f9e9fc7f40 AVAX0.‍02086762729725.‍329678054
0x6629f736826daa6a6a78a9b1cafc6535d24d162777f61b3ee10db51007e495b0Swap188229922022-08-19 0:11:502 hrs 42 mins ago0xfeb8bac57bc7c3dcce15b075e8d73b6d67dac9b9OUT 0xb40bf51c104cc9e3a45f745e81d3aa9f9e9fc7f40 AVAX0.‍00146251635925.‍117063253
0x93f2ff07498c778c11fdd3f675a555c782fc7b370799d61c4402dc3723bead16Swap188222822022-08-18 23:47:283 hrs 6 mins ago0xfeb8bac57bc7c3dcce15b075e8d73b6d67dac9b9OUT 0xb40bf51c104cc9e3a45f745e81d3aa9f9e9fc7f40 AVAX0.‍00146397153925.‍588987068
0xcdb3136b03091b9130fedda94196053c964176e8977a44bfb5cff6eab9c8a83fSwap188222262022-08-18 23:45:333 hrs 8 mins ago0xfeb8bac57bc7c3dcce15b075e8d73b6d67dac9b9OUT 0xb40bf51c104cc9e3a45f745e81d3aa9f9e9fc7f40 AVAX0.‍00908448503725.‍188920787
0x8ee345b3297149e2a3c251de5ba9328d26e49db3ec54af2066323be8b14541b6Swap188217662022-08-18 23:29:553 hrs 24 mins ago0xfeb8bac57bc7c3dcce15b075e8d73b6d67dac9b9OUT 0xb40bf51c104cc9e3a45f745e81d3aa9f9e9fc7f40 AVAX0.‍01041751339625.‍448728594
0xeb56754790e9b75a02701fdb3ee002782d119e561e28e621642bebb8ed0be01bTransfer188215832022-08-18 23:23:343 hrs 30 mins ago0xfeb8bac57bc7c3dcce15b075e8d73b6d67dac9b9SELF0xfeb8bac57bc7c3dcce15b075e8d73b6d67dac9b90 AVAX0.‍00058045352627.‍640644127
0xc86790faefbb5bcd1c7b6b30fa59239947db2efc10486acf0f8db3ee5a04ccf6Swap188212882022-08-18 23:14:353 hrs 39 mins ago0xfeb8bac57bc7c3dcce15b075e8d73b6d67dac9b9OUT 0xb40bf51c104cc9e3a45f745e81d3aa9f9e9fc7f40 AVAX0.‍03040817180525.‍062719749
0x93679f079d264e9c2f2da52992ce4ce16b102296432f0bd0370141cf1ecea5e1Swap188212802022-08-18 23:14:193 hrs 40 mins ago0xfeb8bac57bc7c3dcce15b075e8d73b6d67dac9b9OUT 0xb40bf51c104cc9e3a45f745e81d3aa9f9e9fc7f40 AVAX0.‍00124658932225.‍469706661
0x7fd293e9feb8a26e69dad401d265e4c6c517a3dea32c894415e85420198e8dc1Swap188195842022-08-18 22:16:464 hrs 37 mins ago0xfeb8bac57bc7c3dcce15b075e8d73b6d67dac9b9OUT 0xb40bf51c104cc9e3a45f745e81d3aa9f9e9fc7f40 AVAX0.‍00181868297625.‍406277604
0xf31674cd180db3274d7c81f23744621a15e68626b5a1101a6aa32e595c9c2008Swap188173482022-08-18 21:00:215 hrs 54 mins ago0xfeb8bac57bc7c3dcce15b075e8d73b6d67dac9b9OUT 0xb40bf51c104cc9e3a45f745e81d3aa9f9e9fc7f40 AVAX0.‍00102790857325.‍303610598
0x19277bc1e267f3a59c2cacaef91c637a31808b4fd3537810ff01b8bd37c620d5Swap188168482022-08-18 20:43:136 hrs 11 mins ago0xfeb8bac57bc7c3dcce15b075e8d73b6d67dac9b9OUT 0xb40bf51c104cc9e3a45f745e81d3aa9f9e9fc7f40 AVAX0.‍00388185191732.‍029273971
0x22e10326606a3231516e7406b76964de320512649fa55c7eac72ce44c81d07e4Swap188166782022-08-18 20:37:276 hrs 16 mins ago0xfeb8bac57bc7c3dcce15b075e8d73b6d67dac9b9OUT 0xb40bf51c104cc9e3a45f745e81d3aa9f9e9fc7f40 AVAX0.‍00310446658525.‍615044805
0x9afab90a70c0e56418ed6703ce66b05b67e224cd494408eb47f3570d6c1f9075Swap188164222022-08-18 20:28:446 hrs 25 mins ago0xfeb8bac57bc7c3dcce15b075e8d73b6d67dac9b9OUT 0xb40bf51c104cc9e3a45f745e81d3aa9f9e9fc7f40 AVAX0.‍0072360602225.‍499736477
0xbfa5fad047506013b9857e3de3957388f5144f3cdb8842302aa842f26924cbd6Swap188148692022-08-18 19:35:507 hrs 18 mins ago0xfeb8bac57bc7c3dcce15b075e8d73b6d67dac9b9OUT 0xb40bf51c104cc9e3a45f745e81d3aa9f9e9fc7f40 AVAX0.‍00144997125425.‍158698212
[ Download CSV Export 
Parent Txn Hash Block From To Value
Loading

Contract Name:
0

Compiler Version
0

Optimization Enabled:
0

Other Settings:
-NA-
Block Transaction Gas Used Reward
Age Block Fee Address BC Fee Address Voting Power Jailed Incoming
Block Uncle Number Difficulty Gas Used Reward
Loading
Make sure to use the "Vote Down" button for any spammy posts, and the "Vote Up" for interesting conversations.